Date String (YYYY-MM-DD hh:mm:ss) UTC,Instrument flags,Ambient pressure (hPa),Sample flow (lpm),Bypass flow (lpm),Sample temperature (°C),Ambient temperature (°C),ASC tube jacket temperature (°C),LED temperature (°C),Box temperature (°C),Sample RH (%),Span deviation,Mass concentration (μg/m³),Mass concentration (μg/m³),Mass concentration (μg/m³)
DateTimeUTC,F1_M11,P_M11,Q1_M11,Q2_M11,T1_M11,T2_M11,T3_M11,T4_M11,T5_M11,U1_M11,ZSPAN_M11,X2_M11,X0_M11,X1_M11
2022-10-11 15:00:00,,0821.4,4.99,0.00,29.4,28.2,00.0,38.1,31.2,10.0,0000.0,0005.55,0009.78,0005.03
2022-10-11 15:01:00,,0821.4,5.02,0.00,29.4,28.2,00.0,38.1,31.2,10.1,0000.0,0005.48,0009.21,0004.96
2022-10-11 15:02:00,,0821.6,4.99,0.00,29.4,28.2,00.0,38.1,31.3,10.2,0000.0,0005.37,0009.28,0004.86
2022-10-11 15:03:00,,0821.5,5.00,0.00,29.4,28.2,00.0,38.1,31.3,10.0,0000.0,0005.26,0010.10,0004.74
2022-10-11 15:04:00,,0821.5,5.01,0.00,29.4,28.3,00.0,38.1,31.3,10.3,0000.0,0005.17,0009.86,0004.63
2022-10-11 15:05:00,,0821.5,4.99,0.00,29.5,28.3,00.0,38.1,31.3,10.3,0000.0,0005.07,0009.45,0004.52
2022-10-11 15:06:00,,0821.5,5.00,0.00,29.5,28.3,00.0,38.2,31.3,10.5,0000.0,0005.00,0009.38,0004.44
2022-10-11 15:07:00,,0821.5,5.00,0.00,29.5,28.3,00.0,38.2,31.3,10.7,0000.0,0004.92,0009.39,0004.38
2022-10-11 15:08:00,,0821.6,4.99,0.00,29.5,28.3,00.0,38.2,31.3,10.7,0000.0,0004.88,0009.40,0004.36
2022-10-11 15:09:00,,0821.8,5.00,0.00,29.5,28.3,00.0,38.2,31.4,10.9,0000.0,0004.86,0009.41,0004.34
2022-10-11 15:10:00,,0821.7,5.01,0.00,29.5,28.3,00.0,38.2,31.4,11.0,0000.0,0004.84,0009.73,0004.33
2022-10-11 15:11:00,,0821.6,5.00,0.00,29.5,28.4,00.0,38.2,31.4,10.9,0000.0,0004.84,0010.70,0004.32
2022-10-11 15:12:00,,0821.6,4.99,0.00,29.5,28.4,00.0,38.2,31.4,10.5,0000.0,0004.86,0010.82,0004.33
2022-10-11 15:13:00,,0821.5,5.01,0.00,29.5,28.4,00.0,38.3,31.4,10.4,0000.0,0004.89,0010.47,0004.34
2022-10-11 15:14:00,,0821.5,5.01,0.00,29.6,28.4,00.0,38.3,31.4,10.2,0000.0,0004.90,0009.48,0004.37
2022-10-11 15:15:00,,0821.6,4.99,0.00,29.6,28.5,00.0,38.3,31.5,10.6,0000.0,0004.89,0009.34,0004.38
2022-10-11 15:16:00,,0821.5,5.01,0.00,29.6,28.5,00.0,38.3,31.5,10.3,0000.0,0004.92,0009.56,0004.38
2022-10-11 15:17:00,,0821.5,5.00,0.00,29.6,28.6,00.0,38.3,31.5,10.3,0000.0,0004.89,0009.51,0004.38
2022-10-11 15:18:00,,0821.5,4.99,0.00,29.6,28.6,00.0,38.3,31.6,10.5,0000.0,0004.89,0009.96,0004.38
2022-10-11 15:19:00,,0821.5,5.01,0.00,29.7,28.6,00.0,38.4,31.6,09.8,0000.0,0004.95,0010.07,0004.41
2022-10-11 15:20:00,,0821.4,4.99,0.00,29.7,28.7,00.0,38.4,31.6,09.7,0000.0,0005.03,0010.13,0004.50
2022-10-11 15:21:00,,0821.4,5.01,0.00,29.7,28.7,00.0,38.4,31.6,09.8,0000.0,0005.06,0010.03,0004.57
2022-10-11 15:22:00,,0821.4,4.99,0.00,29.7,28.8,00.0,38.4,31.7,09.7,0000.0,0005.05,0009.16,0004.59
2022-10-11 15:23:00,,0821.5,5.00,0.00,29.8,28.8,00.0,38.4,31.7,10.0,0000.0,0005.05,0009.17,0004.58
2022-10-11 15:24:00,,0821.5,4.99,0.00,29.8,28.8,00.0,38.4,31.7,10.4,0000.0,0005.01,0009.13,0004.53
2022-10-11 15:25:00,,0821.5,5.01,0.00,29.8,28.9,00.0,38.5,31.8,10.1,0000.0,0004.98,0009.20,0004.48
2022-10-11 15:26:00,,0821.5,4.99,0.00,29.9,28.9,00.0,38.5,31.8,10.1,0000.0,0004.94,0009.22,0004.45
2022-10-11 15:27:00,,0821.6,5.00,0.00,29.9,29.0,00.0,38.5,31.9,10.3,0000.0,0004.95,0009.20,0004.44
2022-10-11 15:28:00,,0821.5,5.00,0.00,29.9,29.0,00.0,38.5,31.9,10.8,0000.0,0004.94,0009.40,0004.41
2022-10-11 15:29:00,,0821.6,5.00,0.00,30.0,29.0,00.0,38.6,31.9,11.0,0000.0,0004.91,0009.24,0004.38
2022-10-11 15:30:00,,0821.6,5.00,0.00,30.0,29.1,00.0,38.6,31.9,11.4,0000.0,0004.82,0009.38,0004.31
2022-10-11 15:31:00,,0821.6,5.00,0.00,30.0,29.1,00.0,38.6,32.0,11.2,0000.0,0004.72,0010.32,0004.17
2022-10-11 15:32:00,,0821.7,5.01,0.00,30.1,29.2,00.0,38.7,32.0,10.7,0000.0,0004.63,0010.31,0004.07
2022-10-11 15:33:00,,0821.6,4.98,0.00,30.1,29.2,00.0,38.7,32.1,10.8,0000.0,0004.60,0010.20,0004.01
2022-10-11 15:34:00,,0821.7,5.01,0.00,30.1,29.2,00.0,38.7,32.1,11.0,0000.0,0004.62,0010.09,0003.98
2022-10-11 15:35:00,,0821.6,5.01,0.00,30.2,29.3,00.0,38.8,32.1,10.8,0000.0,0004.57,0009.89,0003.97
2022-10-11 15:36:00,,0821.7,4.99,0.00,30.2,29.3,00.0,38.8,32.1,10.9,0000.0,0004.51,0009.71,0003.96
2022-10-11 15:37:00,,0821.7,5.00,0.00,30.2,29.4,00.0,38.8,32.2,11.0,0000.0,0004.48,0009.61,0003.95
2022-10-11 15:38:00,,0821.7,5.01,0.00,30.3,29.4,00.0,38.8,32.2,11.1,0000.0,0004.44,0009.52,0003.92
2022-10-11 15:39:00,,0821.7,5.00,0.00,30.3,29.3,00.0,38.9,32.2,10.8,0000.0,0004.43,0009.26,0003.92
2022-10-11 15:40:00,,0821.7,5.00,0.00,30.3,28.1,00.0,38.9,32.1,10.7,0000.0,0004.43,0009.15,0003.91
2022-10-11 15:41:00,,0821.7,5.00,0.00,30.2,27.1,00.0,38.8,32.0,10.5,0000.0,0004.45,0008.78,0003.92
2022-10-11 15:42:00,,0821.7,4.99,0.00,30.2,27.3,00.0,38.8,31.9,10.7,0000.0,0004.44,0008.48,0003.93
2022-10-11 15:43:00,,0821.6,5.00,0.00,30.1,27.6,00.0,38.8,31.9,10.7,0000.0,0004.46,0008.64,0003.94
2022-10-11 15:44:00,,0821.6,5.00,0.00,30.1,27.9,00.0,38.8,31.9,10.5,0000.0,0004.45,0008.58,0003.95
2022-10-11 15:45:00,,0821.6,5.00,0.00,30.1,28.1,00.0,38.8,31.9,10.5,0000.0,0004.43,0008.57,0003.96
2022-10-11 15:46:00,,0821.6,5.00,0.00,30.1,28.3,00.0,38.8,31.9,10.2,0000.0,0004.47,0009.28,0003.97
2022-10-11 15:47:00,,0821.6,5.01,0.00,30.1,28.5,00.0,38.8,31.9,10.3,0000.0,0004.48,0009.35,0003.96
2022-10-11 15:48:00,,0821.6,4.96,0.00,30.1,28.6,00.0,38.8,32.0,10.4,0000.0,0004.46,0009.30,0003.96
2022-10-11 15:49:00,,0821.6,4.96,0.00,30.1,28.7,00.0,38.8,32.0,10.4,0000.0,0004.46,0009.30,0003.96
2022-10-11 15:50:00,,0821.6,4.99,0.00,30.2,28.8,00.0,38.8,32.0,10.4,0000.0,0004.47,0009.29,0003.98
2022-10-11 15:51:00,,0821.6,5.00,0.00,30.2,28.9,00.0,38.8,32.1,10.4,0000.0,0004.45,0009.29,0004.00
2022-10-11 15:52:00,,0821.6,5.00,0.00,30.2,29.0,00.0,38.9,32.1,10.5,0000.0,0004.44,0009.81,0004.00
2022-10-11 15:53:00,,0821.6,5.01,0.00,30.2,29.1,00.0,38.9,32.1,10.5,0000.0,0004.40,0009.58,0003.99
2022-10-11 15:54:00,,0821.6,4.99,0.00,30.2,29.1,00.0,38.9,32.1,10.5,0000.0,0004.40,0008.74,0003.99
2022-10-11 15:55:00,,0821.6,5.01,0.00,30.3,29.2,00.0,38.9,32.2,10.5,0000.0,0004.41,0008.78,0003.99
2022-10-11 15:56:00,,0821.6,4.99,0.00,30.3,29.2,00.0,38.9,32.2,10.4,0000.0,0004.41,0008.88,0004.00
2022-10-11 15:57:00,,0821.5,5.00,0.00,30.3,29.3,00.0,39.0,32.2,10.6,0000.0,0004.51,0009.10,0004.05
2022-10-11 15:58:00,,0821.5,5.01,0.00,30.3,29.3,00.0,39.0,32.3,10.5,0000.0,0004.71,0009.56,0004.15
2022-10-11 15:59:00,,0821.6,5.00,0.00,30.4,29.3,00.0,39.0,32.3,10.2,0000.0,0004.81,0009.81,0004.21
